Location: Nitra
(0.0000°N, 18.0833°E)
Time: 02:05:38
(UTC+01:00)

ARIANE 6 FM1 Upper Stage - Pass Details

Date: 24 January 2026
Orbit: 522 x 609 km, 62.0° (Epoch: 11 February)

Event Time Altitude Azimuth Distance (km) Brightness Sun altitude
Exits shadow 04:47:53 33° 271° (W) 953 3.3 -16.9°
Maximum altitude 04:48:41 36° 245° (WSW) 897 3.3 -16.7°
Drops below altitude 10° 04:52:33 10° 178° (S) 1,870 5.6 -15.8°
Sets 04:54:58 0° 169° (S) 2,786 6.7 -15.3°
